Wind_Speed
5 2 2 5 6 6 8 6 6 2 1 8 11 8 9 8 4 4 5 8 8 5 4 4 6 6 4 4 2 3 3 5 12 23 28 32 31 28 28 30 32 33 34 35 36 35 32 32 31 27 27 27 24 23 23 24 22 20 20 21 20 20 20 19 17 16 15 15 15 14 15 15 14 13 12 11 10 9 9 8 9 10 11 10 11 11
4 3 5 8 8 9 9 5 4 4 4 7 7 6 6 4 3 5 7 5 3 2 2 3 6 6 3 4 5 3 2 4 7 19 27 30 29 29 30 31 31 30 33 34 35 35 34 33 31 29 30 27 24 25 24 24 23 21 20 20 21 21 21 20 17 16 16 15 14 14 13 13 13 12 11 10 9 8 7 7 7 8 10 11 12 11
3 4 8 10 8 8 9 6 5 5 6 5 3 6 4 3 4 7 8 6 3 2 2 3 5 4 5 6 4 5 4 5 4 13 25 32 28 28 32 32 28 28 34 35 34 35 35 34 33 32 31 27 24 25 25 24 22 21 21 20 22 22 22 21 18 16 14 13 13 12 12 11 11 11 10 8 8 8 7 7 7 8 10 10 11 11
3 6 12 12 8 8 9 8 7 5 4 5 5 5 4 6 5 2 4 7 3 2 3 5 4 3 4 4 2 4 6 5 3 7 18 29 28 29 34 32 28 31 37 36 33 35 35 36 36 35 33 29 26 27 27 25 23 23 22 20 21 22 22 22 20 18 15 12 12 10 9 9 8 8 8 7 7 7 8 8 8 9 10 10 10 10
6 11 13 11 8 9 10 9 7 5 4 6 8 6 6 9 6 4 8 7 3 4 5 6 4 1 0 1 2 3 6 5 3 3 9 18 22 28 34 32 30 34 38 36 33 35 37 39 38 35 33 31 29 29 29 27 25 24 23 20 19 21 23 22 21 21 19 16 15 12 10 9 8 9 10 9 9 9 9 9 9 10 10 10 10 9
9 15 12 8 8 9 8 9 7 6 5 5 8 9 12 12 7 12 15 9 3 1 5 6 2 1 1 2 4 0 3 4 4 2 2 8 15 25 30 29 29 34 37 34 31 34 38 40 38 35 34 33 31 29 28 26 25 24 24 21 19 21 23 22 22 22 21 21 21 18 16 14 13 13 13 11 10 9 9 9 9 10 10 10 10 9
7 13 9 8 10 9 8 9 8 7 5 3 8 10 13 14 12 18 18 9 3 3 7 9 2 2 2 3 5 2 1 3 3 3 4 3 9 19 26 27 27 32 36 34 31 36 40 40 38 36 35 34 31 28 26 26 25 24 25 22 20 21 23 22 23 23 22 22 22 19 18 17 15 15 14 11 9 7 8 9 9 10 10 10 10 10
7 9 7 9 11 7 7 7 7 7 6 4 8 12 14 14 16 20 16 7 2 3 6 9 3 4 3 3 5 6 5 5 4 3 5 5 7 12 20 24 24 28 34 35 34 39 41 40 38 36 35 33 30 27 26 26 25 24 25 23 20 21 23 23 23 24 24 22 21 19 18 16 15 14 13 11 9 8 8 10 10 10 10 10 10 9
6 8 7 9 9 6 6 8 8 8 5 5 9 17 17 15 16 16 11 4 2 4 6 9 3 4 2 2 5 7 7 7 7 6 5 6 10 11 14 21 21 23 32 35 36 40 41 39 37 35 34 32 29 27 26 25 24 24 25 23 20 21 23 24 24 25 25 22 20 20 19 17 15 13 12 10 9 9 10 10 10 10 11 11 10 9
6 10 10 9 7 7 7 9 9 7 4 5 13 15 11 9 9 9 6 4 4 2 5 9 5 4 2 2 4 6 7 8 8 6 6 9 16 17 14 17 18 18 27 34 36 40 40 38 37 34 32 31 29 27 26 24 22 24 25 24 22 22 22 24 24 25 26 24 22 22 21 18 16 15 14 13 11 10 10 11 11 10 10 11 11 10
9 15 11 7 8 10 10 10 9 9 7 9 14 10 5 5 4 4 4 5 4 2 5 11 8 4 2 3 5 5 5 8 8 6 7 11 18 22 20 18 17 13 22 33 36 39 40 38 36 34 31 31 29 27 26 23 21 23 25 24 23 22 22 23 24 25 26 26 24 23 21 19 17 17 17 16 14 12 11 11 11 10 11 11 11 10
6 9 7 6 10 12 10 9 8 9 7 7 9 8 7 3 3 4 4 5 3 4 5 11 9 4 3 4 7 7 4 8 11 9 10 13 19 24 24 21 19 12 17 30 34 36 41 39 37 36 33 31 30 28 26 23 21 22 24 24 23 23 22 22 24 24 26 26 25 23 21 20 19 18 19 18 16 14 12 11 11 11 11 11 11 11
4 5 5 5 10 8 5 5 4 2 3 6 7 8 7 3 1 2 1 2 3 6 5 13 9 2 1 3 6 10 7 8 12 12 16 19 21 26 26 23 23 16 15 27 32 34 40 40 37 37 34 32 31 28 26 23 21 21 22 22 22 24 23 22 23 23 24 25 25 23 22 21 19 18 18 17 16 15 13 11 12 13 13 12 12 12
3 5 5 3 6 5 6 4 2 1 1 4 6 7 5 5 3 3 3 3 4 5 4 11 8 1 2 2 1 7 7 9 13 14 17 21 22 24 21 15 17 15 12 17 24 30 38 41 38 37 35 33 31 29 26 24 22 21 21 22 21 22 24 23 23 23 22 23 25 25 23 21 20 19 18 17 16 16 14 13 13 14 13 12 12 12
2 4 5 4 4 3 4 4 5 4 2 2 5 5 5 6 4 4 5 4 4 3 4 5 3 1 2 1 3 2 5 10 14 13 13 17 17 15 12 8 8 10 5 4 10 18 28 36 38 37 35 33 30 29 28 25 23 22 21 21 20 21 23 23 23 22 22 22 23 25 24 22 21 20 18 18 17 16 15 14 14 13 12 11 11 12
3 4 5 4 4 5 5 4 5 4 1 2 2 5 4 5 4 4 5 4 5 4 3 2 0 1 1 2 5 5 6 10 12 11 10 12 13 11 14 13 7 9 6 3 6 12 16 22 30 33 33 32 30 30 30 27 25 23 21 20 19 19 21 23 23 23 23 23 23 25 24 23 22 21 19 18 18 17 16 14 13 13 12 11 11 12
1 3 6 2 4 5 6 5 3 4 2 2 1 2 3 4 4 4 3 4 6 4 1 2 2 0 1 1 5 5 4 8 11 11 12 11 10 9 12 12 10 13 10 10 13 16 14 13 22 30 31 32 33 32 32 30 27 24 22 20 19 19 20 22 23 23 23 24 24 25 25 24 24 23 21 19 19 18 17 15 14 13 12 12 12 12
2 2 7 3 5 3 4 6 4 4 5 3 1 3 3 1 2 3 3 4 4 3 2 3 3 2 2 1 3 3 2 6 8 11 14 16 14 12 10 10 11 12 12 12 15 21 19 11 18 28 28 29 33 34 33 32 30 27 23 21 20 19 19 21 23 24 24 24 25 25 25 25 25 24 22 20 19 18 18 17 16 14 13 12 12 12
2 1 6 4 2 1 5 6 2 3 3 5 4 2 1 2 1 1 2 4 3 3 2 3 3 1 1 0 2 2 2 5 7 10 12 15 18 19 18 16 15 15 13 12 12 17 20 17 21 26 22 22 29 31 30 30 31 31 27 25 22 19 16 18 22 25 25 25 25 26 26 25 25 25 23 21 19 18 18 18 17 16 15 14 13 13
1 4 3 6 2 3 5 3 2 3 4 2 1 2 1 3 3 2 2 3 5 4 3 2 1 2 2 2 3 2 4 4 7 9 10 13 17 18 20 20 19 17 15 12 11 13 16 19 24 24 19 21 27 27 25 23 27 32 32 30 29 25 20 18 21 24 25 26 26 26 26 25 25 25 24 23 21 19 18 17 17 17 16 15 14 14
2 4 1 5 3 4 2 0 4 3 1 2 2 2 1 1 0 1 1 1 4 5 4 4 1 3 2 1 2 6 6 4 5 10 10 13 18 20 21 21 20 18 17 15 13 13 14 17 22 23 20 22 26 25 21 18 20 29 34 33 32 30 27 23 21 22 24 25 26 26 26 26 25 25 24 24 22 21 19 17 17 17 16 16 16 15
2 2 0 3 2 2 3 4 5 6 4 4 3 2 3 1 1 1 2 2 2 5 4 6 4 2 1 1 2 5 6 3 6 11 13 15 19 22 22 22 21 19 17 16 14 12 12 13 16 19 20 21 23 23 23 19 18 21 27 30 31 30 28 24 22 21 23 25 26 26 26 25 25 24 24 24 24 23 21 19 18 17 16 17 17 17
1 2 2 2 2 3 5 3 2 3 4 5 3 2 3 2 3 4 3 2 2 5 4 4 3 2 3 3 3 5 7 11 13 13 14 17 19 21 23 24 22 21 19 18 16 14 12 12 13 14 17 18 19 21 22 23 22 21 23 26 29 31 30 26 23 22 21 23 26 27 27 26 25 24 23 23 24 23 23 21 19 18 17 17 16 17
3 2 2 3 4 3 4 5 6 5 5 4 1 2 1 0 2 4 4 4 4 3 4 4 3 2 1 4 7 8 5 12 18 17 17 19 20 21 23 25 24 23 22 20 19 17 14 12 11 12 13 14 16 16 16 19 23 26 26 25 26 29 31 28 25 25 25 24 25 26 27 26 25 24 23 23 22 22 22 22 21 19 19 18 17 17
4 1 3 3 3 4 6 7 7 6 4 3 2 4 4 1 5 6 3 3 4 1 3 5 3 2 1 3 8 7 4 10 16 17 19 21 21 21 23 25 26 25 24 23 22 20 17 15 12 11 10 10 11 12 11 10 14 20 23 24 24 25 28 29 27 28 28 28 27 27 27 26 25 24 24 22 22 21 21 21 22 21 20 19 18 17
2 1 3 4 4 3 2 1 3 4 2 2 2 3 5 3 5 6 3 4 4 3 3 4 5 3 2 5 6 3 3 9 13 15 18 21 22 22 24 25 26 26 26 25 24 23 21 19 16 14 10 8 8 9 9 8 9 13 17 22 24 24 26 28 28 28 28 28 29 29 28 26 26 25 23 22 21 20 20 21 22 22 22 21 20 19
2 3 3 4 5 5 5 4 5 2 1 2 2 3 4 4 5 6 5 3 4 6 4 2 10 11 6 8 9 5 4 7 11 15 18 19 22 23 24 25 26 27 27 25 24 24 24 23 21 18 16 14 10 8 7 7 8 11 14 18 22 22 23 24 24 24 26 28 28 27 26 26 27 27 24 22 20 20 20 21 23 23 23 23 22 21
3 4 4 2 1 3 5 4 1 3 4 3 4 5 6 5 6 6 5 4 7 7 3 3 13 17 11 10 12 10 7 7 11 16 19 20 23 24 25 26 26 27 28 26 24 23 24 25 24 23 22 20 18 15 12 10 9 10 14 16 18 17 16 18 19 19 21 24 27 26 25 27 28 28 25 23 22 22 21 22 23 24 24 23 24 24
4 2 4 4 5 4 1 1 4 7 5 4 7 7 7 6 6 5 5 6 6 6 7 9 13 16 14 12 12 12 12 13 15 19 22 23 24 25 26 26 26 27 28 27 25 23 22 23 23 24 23 22 22 20 19 17 14 11 10 12 13 11 10 11 14 15 15 17 21 23 24 25 25 25 25 25 24 23 23 24 24 24 24 24 24 25
4 1 5 4 5 7 7 5 6 8 6 7 7 6 6 7 7 7 5 4 6 10 14 14 12 11 11 12 12 15 20 22 22 22 23 24 24 25 26 26 25 25 25 25 24 23 22 21 21 22 22 21 19 18 18 19 19 16 12 9 8 8 7 7 9 11 13 14 17 19 20 21 21 21 23 25 25 25 24 25 24 24 25 25 25 25
4 2 6 4 4 6 7 8 8 6 6 7 7 7 8 8 6 6 6 8 11 12 14 16 12 7 7 11 14 20 25 25 22 22 22 23 25 27 27 27 26 25 24 24 24 23 22 22 20 20 20 20 19 16 14 14 15 16 15 11 10 10 10 9 9 10 12 14 15 16 17 18 18 18 19 21 23 24 24 25 25 26 26 26 26 25
4 3 4 5 4 4 6 9 9 6 6 7 7 8 7 5 4 5 6 9 14 15 13 14 11 5 7 13 17 22 26 25 21 22 23 23 26 29 29 27 26 24 23 23 23 22 21 21 20 20 20 19 18 17 15 13 12 12 13 12 10 9 9 8 8 9 10 10 9 10 12 14 14 15 16 18 20 22 23 24 25 26 27 28 27 26
2 2 2 3 3 3 6 7 7 6 6 5 4 4 3 3 3 6 7 8 15 18 14 10 8 7 10 15 15 16 20 21 22 25 27 27 27 29 29 26 24 21 20 21 22 21 20 20 19 19 18 18 18 17 15 12 12 12 12 13 11 8 7 7 7 7 7 8 7 7 9 9 10 12 14 16 18 19 21 22 23 25 27 28 28 28
3 3 0 1 2 3 7 6 5 5 3 2 6 5 2 0 4 7 9 11 12 11 9 9 9 9 12 14 14 15 18 22 26 29 31 30 30 29 28 25 23 21 19 19 20 20 19 19 19 19 18 17 16 16 14 12 12 12 12 13 12 10 9 8 7 6 6 6 7 7 8 8 8 9 11 13 15 16 17 19 20 21 24 26 27 28
4 4 1 1 2 1 4 5 5 1 4 6 6 3 2 6 9 10 8 9 10 10 12 14 12 11 13 16 18 21 23 26 29 30 29 28 28 28 27 24 22 22 21 21 21 19 17 16 18 19 18 15 13 13 13 12 11 11 12 13 14 12 12 11 9 8 7 6 6 6 6 6 6 7 8 10 11 13 15 16 18 18 20 22 25 27
3 2 1 1 1 1 3 4 2 4 6 5 5 5 6 6 9 10 8 3 3 12 17 15 12 14 19 22 23 24 25 25 24 24 25 25 24 24 25 23 22 22 21 21 20 19 16 15 16 16 15 13 11 11 12 11 9 9 10 11 13 14 14 12 11 9 7 7 6 6 5 5 4 6 8 9 10 11 12 14 16 17 17 19 20 23
5 3 2 2 1 1 2 1 1 2 3 6 6 4 3 1 4 8 6 5 4 8 17 15 12 15 21 26 28 29 27 23 17 15 21 24 22 22 23 22 21 21 20 20 20 18 16 15 14 12 10 11 12 12 11 9 8 7 8 8 9 10 12 12 12 11 8 6 5 4 3 3 2 2 4 6 8 9 11 12 13 15 17 18 19 20
5 3 3 2 1 2 3 2 3 3 1 4 6 8 8 1 6 9 9 4 6 6 16 17 14 18 22 24 29 30 25 16 8 8 19 25 24 24 24 22 21 20 19 18 17 16 15 12 10 9 8 10 13 12 10 7 5 5 6 7 7 8 7 9 11 11 9 7 5 3 3 3 5 5 3 0 2 4 6 9 11 14 16 18 18 19
7 4 5 4 2 3 4 3 1 1 2 5 7 9 10 3 11 12 9 4 4 5 16 17 13 18 23 25 29 27 17 9 3 8 20 27 26 26 26 24 22 19 16 15 13 12 11 8 6 5 5 6 8 8 6 4 3 3 4 5 6 7 7 7 7 8 8 7 6 5 5 5 6 7 6 4 3 3 2 3 5 7 11 15 17 18
6 4 4 3 2 2 2 1 1 2 2 4 5 9 10 1 10 11 7 5 4 3 19 22 16 18 23 26 24 14 6 8 10 14 24 30 28 27 27 24 22 19 16 13 11 9 7 5 4 3 3 3 3 3 2 1 2 3 4 5 5 7 7 7 7 6 5 5 5 5 5 5 6 6 5 4 4 4 5 5 6 6 5 6 10 13
3 2 2 2 1 1 1 1 1 2 3 4 5 9 9 1 6 7 4 6 5 5 23 27 22 19 22 24 20 12 12 20 25 26 29 31 28 26 25 22 19 16 15 13 10 6 3 2 2 2 2 3 3 3 3 3 4 5 6 7 8 8 7 7 8 8 6 4 2 1 3 4 5 5 5 4 4 4 4 5 6 6 8 8 6 7
1 1 1 1 1 1 1 2 1 3 3 3 4 9 10 3 3 2 4 2 4 14 25 28 28 26 24 26 28 26 28 31 31 30 29 28 26 24 21 18 16 13 11 10 8 5 2 2 2 2 2 2 3 5 6 6 6 6 7 8 9 8 8 9 10 10 9 8 7 4 2 1 3 4 5 5 7 6 5 4 5 5 6 7 8 7
2 1 1 1 1 0 1 3 1 2 4 5 5 7 9 3 6 7 7 10 15 23 27 28 32 33 32 32 34 34 33 30 28 27 25 24 23 21 17 15 13 10 8 6 4 3 3 3 3 4 5 5 6 7 7 7 6 6 7 7 8 8 8 9 10 10 10 11 11 10 8 6 5 5 6 6 7 7 7 6 6 6 6 7 8 9
1 2 1 2 1 2 1 1 2 5 5 4 3 2 4 9 13 16 19 18 18 23 27 28 30 34 37 37 35 32 30 27 25 23 21 20 18 16 14 11 9 8 7 6 5 5 5 5 5 6 7 7 8 9 10 9 8 7 7 7 8 9 9 10 11 10 10 11 12 13 13 11 9 8 7 6 6 6 7 7 7 6 6 6 7 8
3 4 4 2 1 2 3 4 4 3 4 11 15 14 15 18 18 19 21 21 19 22 27 29 30 32 35 36 33 30 27 23 21 19 18 16 14 13 12 10 8 8 7 5 5 6 6 7 7 8 8 8 9 9 10 10 9 8 8 8 8 9 10 12 13 12 12 12 12 12 13 14 13 11 8 6 7 7 7 7 8 8 8 9 9 9
2 2 4 3 1 1 1 2 4 9 15 18 18 16 17 18 16 16 19 20 20 21 24 27 28 28 28 29 27 26 23 21 20 18 16 14 13 11 10 10 9 8 7 7 7 7 7 7 7 8 8 8 9 10 10 10 9 8 8 9 9 10 10 11 12 13 13 13 13 13 12 12 13 12 10 7 7 8 8 8 8 9 10 12 12 12
4 5 2 2 2 1 0 2 1 10 16 19 19 17 15 14 13 14 15 18 19 20 21 23 24 23 22 21 22 23 23 21 21 19 18 16 14 12 11 9 9 8 7 7 7 6 6 5 6 7 7 7 7 8 9 9 8 8 8 8 9 10 11 11 11 12 13 14 14 14 13 11 10 11 11 10 10 10 10 9 10 11 12 13 13 14
4 6 3 0 1 2 1 2 3 10 12 14 17 17 14 13 12 11 12 14 16 17 17 18 20 20 20 20 21 23 23 22 21 21 20 18 16 14 12 10 8 6 5 5 5 5 5 5 6 6 6 5 6 7 8 8 8 8 8 8 8 9 10 11 11 11 12 13 14 13 12 11 9 9 10 11 12 12 12 12 12 13 13 13 14 15
3 5 2 0 2 1 1 5 7 9 7 7 9 12 13 14 12 11 11 12 13 15 16 15 15 16 16 18 20 21 21 19 19 19 18 18 17 16 13 11 8 5 3 3 4 5 6 6 6 4 4 5 6 8 8 8 8 9 9 9 9 8 9 10 11 11 12 12 13 13 13 12 11 10 11 12 13 14 14 15 14 15 15 14 14 13
2 1 1 2 2 1 2 3 4 4 4 7 9 8 9 12 14 14 14 13 13 13 14 13 12 11 11 13 15 17 17 17 16 17 17 17 16 15 13 11 8 7 6 5 5 6 5 4 4 5 6 6 8 10 10 9 8 8 8 9 9 8 7 8 10 11 12 12 12 12 13 12 12 12 11 13 15 16 17 17 16 15 15 15 14 13
1 1 2 3 2 3 1 3 5 5 5 7 10 9 7 8 12 15 16 14 13 13 12 11 11 11 11 12 12 13 15 16 16 17 17 17 15 14 12 11 11 11 10 9 8 5 4 6 7 8 8 9 10 12 11 7 6 6 6 7 7 7 7 8 9 11 12 12 11 12 12 12 12 11 11 12 15 17 18 18 17 16 15 14 15 15
Wind_Direction
181 124 186 207 225 223 230 206 177 274 345 144 148 152 156 158 168 150 141 155 160 165 167 152 133 146 178 143 117 207 156 98 148 162 161 167 172 170 172 171 168 168 167 169 173 175 176 177 178 177 176 177 177 177 175 176 182 181 179 182 180 171 171 180 182 176 175 171 160 155 157 157 157 154 148 147 146 152 164 167 166 171 180 185 185 190
168 176 225 219 220 224 240 231 184 200 162 137 142 147 145 153 140 83 89 102 44 22 154 132 128 142 137 84 19 340 131 68 124 156 161 166 170 168 169 170 170 171 169 168 170 173 175 176 178 178 178 179 176 175 176 180 184 184 185 186 181 175 177 185 189 182 175 173 163 153 155 155 153 150 143 139 139 150 168 174 174 175 182 188 190 194
176 221 239 225 219 228 248 249 229 218 169 149 136 134 141 162 111 70 83 102 58 31 124 157 141 121 68 67 359 332 53 54 97 151 162 167 169 167 170 172 171 171 171 171 171 172 174 176 177 178 177 178 178 177 179 184 187 187 189 190 185 181 182 187 192 190 182 174 165 157 158 158 153 148 141 134 140 156 170 178 184 183 184 188 191 194
191 236 236 226 213 216 243 246 234 232 170 154 150 139 161 171 146 92 118 132 123 57 103 141 120 70 41 63 289 320 20 33 80 136 159 168 171 167 171 175 171 168 169 172 173 172 173 175 176 177 177 176 177 179 183 188 191 191 192 190 185 184 185 188 189 190 187 177 168 162 157 157 155 149 148 150 153 163 175 180 182 181 184 189 190 191
218 236 227 221 215 207 233 243 224 212 188 179 173 160 162 176 179 140 134 128 81 38 99 119 84 27 29 126 238 337 2 349 24 101 148 160 169 168 171 176 172 168 170 172 174 172 173 174 175 177 177 177 179 182 187 191 195 196 194 189 186 184 186 187 185 182 180 174 172 174 169 165 168 166 169 177 174 172 180 184 179 175 180 183 184 186
235 243 226 213 226 212 224 243 226 195 183 189 195 186 167 168 154 124 127 123 103 92 166 163 116 139 184 203 222 19 17 322 343 325 168 143 161 167 171 176 173 172 173 174 176 175 174 174 175 178 178 180 182 186 190 194 197 198 195 196 192 186 185 185 182 179 175 170 171 176 179 179 183 183 181 184 182 176 178 182 178 174 177 178 177 178
236 241 216 205 224 216 219 240 236 202 171 188 213 191 160 153 140 134 137 133 143 171 189 204 191 119 174 205 215 173 121 250 299 296 263 177 168 169 170 176 176 176 175 175 176 176 176 175 176 179 181 183 185 188 192 195 198 198 197 200 197 189 186 183 181 179 173 171 173 178 183 187 190 190 186 186 190 185 179 181 180 176 177 178 174 173
232 227 205 207 218 214 215 234 236 194 168 227 208 166 151 157 154 151 147 134 129 118 166 210 197 106 169 182 199 187 167 217 239 250 252 221 197 181 171 175 178 179 178 177 175 175 177 179 180 181 184 187 188 189 193 195 198 200 200 201 200 192 186 185 184 179 174 175 178 183 189 193 196 196 190 185 188 191 186 183 181 177 178 180 176 174
240 219 197 195 211 217 211 227 224 183 182 241 179 154 160 168 159 153 145 113 70 97 158 208 182 99 159 158 184 185 169 202 216 215 234 216 212 212 187 177 177 180 182 180 177 177 179 182 184 185 186 188 191 192 195 198 200 202 203 203 200 194 188 188 188 180 178 181 186 191 194 192 192 195 193 183 181 186 187 187 182 177 180 180 175 174
255 241 213 179 198 220 216 227 217 186 200 180 146 150 161 152 138 134 122 85 49 58 188 208 188 116 156 187 187 185 180 199 204 201 213 207 211 224 218 191 178 181 187 185 181 180 183 186 188 188 188 190 194 195 196 200 203 203 204 204 202 195 189 190 190 184 182 186 191 196 195 192 187 187 188 182 180 181 182 186 184 180 183 178 173 173
259 265 247 191 194 211 217 230 212 191 191 148 139 146 115 76 77 91 86 82 75 311 223 202 196 140 137 214 206 200 188 177 175 186 195 198 209 224 233 212 188 187 195 189 184 184 186 188 190 190 190 192 194 196 196 200 204 203 204 205 204 199 193 192 192 188 186 189 195 196 195 194 188 183 183 181 182 185 180 182 186 187 187 179 172 174
274 277 266 213 208 208 206 217 208 192 177 129 136 145 113 61 22 48 31 57 106 263 227 184 185 137 133 217 212 211 200 165 169 180 184 192 207 220 229 218 197 195 199 192 186 184 184 185 188 190 191 192 193 194 196 200 203 203 204 205 204 204 200 195 195 193 191 193 197 197 195 194 189 185 186 184 185 189 188 184 189 193 191 183 177 176
281 251 253 223 214 201 162 190 229 212 120 97 127 139 126 141 86 76 19 81 182 249 202 162 158 123 239 249 197 193 200 178 173 178 184 190 201 212 220 214 203 200 195 191 189 185 184 184 186 188 190 191 193 195 198 201 202 202 202 203 205 206 203 198 199 199 195 195 198 198 196 194 191 191 193 193 190 191 194 191 189 194 193 186 183 180
294 270 267 217 209 184 120 137 218 241 99 103 140 144 130 153 149 150 177 168 208 238 169 148 142 130 266 314 159 183 191 184 181 185 188 192 200 208 211 209 204 203 187 179 184 184 185 186 186 189 191 193 194 197 200 202 203 202 201 202 205 207 206 202 202 202 198 196 197 199 200 197 194 194 197 201 197 193 196 192 188 194 193 189 188 183
176 265 251 210 214 188 114 138 172 165 135 151 163 142 139 167 159 153 179 188 193 174 118 129 141 182 197 297 353 59 143 165 179 189 191 197 205 201 198 206 205 199 183 135 151 166 180 186 186 188 191 195 197 199 201 203 204 204 201 202 205 208 208 206 204 204 200 195 196 199 202 201 197 195 198 203 202 198 198 193 188 192 193 194 196 188
161 226 249 228 192 157 127 157 153 112 63 256 165 115 142 187 162 153 188 173 135 122 86 79 8 297 221 264 340 26 102 135 151 162 169 194 208 190 184 193 156 118 124 157 156 150 160 175 183 186 189 195 200 200 202 204 206 206 204 204 207 209 211 210 207 205 201 197 196 199 202 202 200 199 200 204 205 203 202 199 194 195 194 194 198 193
77 256 289 281 173 152 141 158 127 114 171 293 62 145 217 221 162 152 173 116 101 108 107 77 74 8 220 278 340 4 92 122 129 130 123 143 171 172 175 171 112 99 139 192 198 184 168 157 172 182 187 193 196 196 200 205 208 209 206 204 207 210 212 213 211 208 204 201 199 200 203 203 203 204 204 206 208 206 205 205 203 202 200 198 199 195
104 272 296 265 181 179 115 113 75 88 122 90 67 232 258 268 145 125 123 114 92 101 117 48 49 155 167 158 318 334 103 124 122 112 107 110 107 96 113 132 116 115 149 181 199 199 193 171 169 180 188 193 194 193 196 202 206 209 210 207 206 209 212 214 214 211 207 205 203 202 204 204 205 208 210 210 211 211 209 208 206 206 205 206 206 202
99 79 300 303 159 33 42 84 73 5 60 122 169 209 96 142 176 53 134 146 108 106 119 30 17 167 168 237 220 198 121 117 113 102 100 97 88 88 98 106 108 108 122 153 183 196 196 190 185 185 184 184 187 190 193 199 203 206 210 212 211 212 214 215 215 212 210 209 207 205 205 206 206 208 212 214 215 215 213 211 209 207 207 208 212 212
43 100 289 311 43 56 19 62 169 307 351 82 100 17 63 161 164 171 185 153 127 136 140 73 349 230 230 250 197 121 41 57 102 94 85 90 88 89 94 94 98 102 106 125 154 175 182 187 191 191 185 179 182 186 188 194 203 206 207 210 212 215 215 215 215 214 213 211 210 209 208 208 208 209 212 214 215 216 215 214 213 213 211 211 213 216
8 88 227 299 9 70 24 323 170 177 38 55 26 350 302 301 69 187 267 100 120 134 143 134 175 262 254 217 128 90 55 23 93 98 89 89 87 86 91 93 95 98 101 110 132 156 167 177 188 195 194 189 188 189 183 182 195 206 210 211 212 214 214 214 216 217 218 217 214 213 211 210 211 212 214 216 217 218 217 217 218 219 218 217 218 219
10 69 46 292 9 111 225 231 169 156 148 140 146 208 214 194 110 102 326 323 94 115 148 153 159 238 354 74 103 101 105 94 81 91 94 90 88 88 92 96 98 98 102 107 113 132 152 163 177 191 196 196 198 200 197 190 186 196 209 213 215 216 217 217 220 221 222 222 220 218 216 214 213 213 216 217 219 220 219 220 220 220 222 223 224 224
28 78 35 287 238 212 246 255 108 104 118 132 146 185 181 155 129 139 187 244 76 86 106 105 106 111 30 28 66 85 109 120 105 93 94 89 88 92 92 96 101 100 100 105 105 109 127 142 152 170 186 195 200 203 206 206 201 199 207 214 218 220 218 218 222 225 225 224 224 223 220 218 215 215 216 218 220 222 222 222 222 222 224 226 227 227
4 72 40 311 296 322 327 350 11 21 60 75 351 352 26 313 122 130 160 154 108 102 116 86 77 121 18 26 84 88 100 124 118 110 106 98 93 95 95 95 100 101 100 102 105 106 113 128 141 152 168 181 190 195 200 205 205 206 210 214 219 220 218 216 220 223 224 224 226 227 226 224 220 216 216 218 220 222 223 224 223 224 227 228 228 228
356 59 63 25 14 13 4 5 355 346 24 50 312 334 344 357 107 90 69 82 83 102 131 118 109 128 123 75 86 89 108 124 120 116 112 107 103 101 98 96 98 100 99 97 101 106 109 114 123 136 152 164 175 185 190 193 198 203 208 213 216 216 215 216 218 219 219 222 225 226 226 225 224 221 218 217 219 222 225 226 225 227 230 232 232 232
9 40 75 97 119 114 87 32 319 298 318 330 319 11 16 27 86 98 91 70 92 120 96 113 129 107 104 112 98 76 118 123 123 118 112 111 110 107 102 99 98 97 96 94 97 102 105 107 112 118 125 134 148 173 185 188 195 200 205 209 212 212 212 216 220 221 222 225 226 225 223 222 224 226 222 218 218 220 223 225 226 229 233 236 238 237
76 25 60 121 144 160 171 207 242 239 68 359 350 36 38 33 66 99 107 96 137 125 55 94 140 133 142 144 137 160 172 138 130 124 119 117 114 109 104 101 98 96 95 93 95 99 101 102 105 107 105 104 108 130 153 162 178 192 201 208 209 210 211 215 220 222 224 227 229 229 228 224 222 224 223 220 220 220 221 223 225 227 231 236 240 241
96 7 7 63 119 192 191 213 294 41 62 70 64 42 25 37 66 80 96 141 146 115 73 178 144 138 157 166 155 168 172 146 139 134 130 124 118 114 108 101 95 93 92 91 92 98 101 100 100 103 103 102 103 106 112 117 136 168 190 203 206 206 211 216 220 221 223 228 231 232 231 228 223 220 219 220 222 222 222 222 223 225 229 233 237 241
116 12 339 351 360 352 354 21 42 49 41 44 64 60 40 50 81 90 114 150 146 124 145 168 152 144 157 165 161 168 165 152 149 144 135 128 122 117 110 102 95 92 91 89 87 90 96 100 100 99 100 102 104 105 106 104 103 120 157 183 193 200 211 215 216 216 218 226 231 231 230 229 225 221 220 223 224 223 222 223 223 224 227 232 235 237
103 356 328 0 10 350 353 9 35 51 40 19 31 45 42 59 103 119 125 125 110 120 135 143 143 143 152 162 163 162 158 152 147 144 136 129 123 116 109 104 99 95 93 92 89 87 89 95 100 99 97 97 100 103 105 101 97 97 108 134 158 173 186 191 191 191 193 201 212 217 219 220 220 220 222 224 225 222 221 221 222 224 227 232 235 237
52 327 314 26 42 328 340 7 16 39 53 32 13 10 25 47 71 88 100 100 98 112 128 130 131 139 152 153 146 144 147 147 144 142 135 127 122 114 107 104 102 99 97 95 94 91 87 89 95 97 94 92 94 99 101 99 95 92 95 106 126 142 155 165 167 170 179 188 194 203 210 213 214 214 217 220 223 224 224 223 224 226 228 231 234 237
31 351 330 44 59 310 331 1 357 14 57 43 8 354 11 38 55 73 105 122 122 124 127 128 135 154 156 139 128 130 137 138 137 134 128 125 123 117 112 108 105 103 102 100 98 95 91 87 89 92 91 91 93 95 98 100 100 96 95 101 113 132 154 170 171 166 171 177 181 196 211 215 214 214 216 220 222 225 227 228 229 231 232 233 234 235
12 29 358 49 70 295 318 349 356 25 48 22 324 303 331 3 45 81 90 115 133 136 138 145 153 154 141 132 124 126 131 131 131 129 126 126 125 121 119 116 112 109 108 105 100 96 92 88 88 91 92 91 92 94 96 99 97 90 90 99 108 121 145 172 187 186 183 182 181 190 202 207 210 212 216 221 223 224 226 227 229 232 234 236 236 236
18 76 142 61 104 284 309 341 22 47 57 257 249 237 230 70 84 98 114 135 142 133 126 134 141 142 139 132 129 131 132 132 133 132 130 130 128 125 122 120 117 113 110 110 106 99 94 89 88 93 95 91 89 91 93 96 95 89 87 95 105 110 116 131 157 176 186 193 197 200 201 200 201 203 208 214 219 223 225 226 228 231 233 236 238 239
28 45 337 346 103 253 319 20 52 77 229 241 260 298 57 106 104 92 104 143 145 120 115 129 142 143 130 122 122 126 129 133 135 135 136 135 133 129 125 121 118 113 111 114 110 104 100 92 88 92 96 95 93 90 86 86 91 94 92 93 95 96 100 111 127 139 148 158 172 189 199 202 203 206 210 212 214 218 222 226 229 231 233 235 237 240
82 52 359 6 78 327 12 57 117 227 259 290 312 356 38 77 99 86 58 17 149 137 135 140 145 134 122 118 117 116 120 126 128 132 139 140 137 134 129 122 119 115 114 114 110 106 105 99 93 92 94 98 102 96 84 74 67 73 83 88 90 90 90 95 103 112 122 130 135 143 155 169 187 203 213 219 222 225 227 228 231 233 235 236 237 239
97 95 33 13 12 72 82 81 252 274 326 338 327 323 341 358 142 124 94 3 350 133 142 142 135 129 127 125 122 121 120 117 109 119 136 138 136 134 129 124 123 121 118 115 111 109 109 105 100 98 95 97 102 100 90 76 58 55 64 71 76 81 84 86 86 88 92 99 108 116 121 119 119 159 211 223 225 230 237 240 242 241 241 242 243 244
67 92 93 81 346 44 81 53 3 26 335 283 280 293 311 344 129 117 105 58 3 89 136 142 137 136 137 136 138 137 129 112 96 126 136 134 133 132 129 128 128 126 122 119 118 117 116 113 110 108 101 97 101 105 101 87 67 51 49 46 41 41 53 68 73 74 74 70 61 43 30 36 45 49 42 307 217 225 241 250 254 253 250 249 249 248
31 46 84 86 14 29 82 87 63 148 228 252 255 289 317 69 111 93 94 122 339 70 127 134 133 138 142 146 149 148 134 113 127 146 134 130 131 132 132 132 131 127 123 123 121 119 121 124 123 121 122 113 105 105 106 94 61 29 20 19 10 3 5 18 36 50 58 55 43 32 32 33 31 36 44 50 55 47 359 308 290 277 267 259 255 253
18 21 47 57 18 15 83 89 244 203 236 258 261 296 311 92 105 81 107 178 299 114 139 137 132 139 144 146 147 142 127 140 146 136 130 128 127 127 128 129 128 127 126 125 120 117 125 141 157 156 152 149 134 125 138 229 302 314 323 325 323 330 340 342 345 356 16 35 43 42 44 39 27 25 33 43 45 43 35 24 16 5 343 302 272 261
2 15 51 89 68 347 68 106 271 260 260 267 296 329 331 15 94 84 168 230 305 153 149 140 135 143 146 143 136 115 111 131 133 130 132 131 128 126 126 127 126 125 125 124 121 121 132 158 179 190 185 185 203 227 243 261 276 281 286 295 303 312 317 313 311 317 324 327 341 49 51 38 26 20 13 356 354 6 19 20 17 21 27 20 345 291
339 353 14 106 139 278 126 112 293 280 284 286 316 355 9 45 139 170 210 234 99 137 144 137 136 143 142 133 126 120 121 128 131 134 138 138 134 130 129 131 133 131 130 129 126 132 183 258 280 269 246 232 248 261 267 272 273 271 274 281 289 294 292 288 292 300 306 304 295 277 261 307 353 360 353 342 338 336 333 342 352 356 11 17 5 347
182 163 312 222 196 176 89 67 83 224 282 317 327 350 14 69 169 157 104 92 111 126 129 128 132 138 138 130 125 126 128 130 133 136 138 138 137 135 136 141 144 146 150 152 156 179 214 238 264 282 294 299 296 290 288 288 281 271 266 266 269 268 265 269 278 286 290 291 288 281 273 270 284 310 325 328 326 323 318 314 318 325 336 347 347 343
201 156 193 249 209 116 124 183 197 225 279 354 71 97 80 108 129 121 100 96 110 119 120 122 128 134 136 132 128 131 133 133 137 140 138 138 140 142 148 156 166 176 180 185 205 228 245 254 259 266 277 287 292 293 294 297 297 289 275 264 259 256 252 255 261 267 273 278 280 282 282 281 281 288 305 313 304 298 299 295 295 302 311 318 320 318
239 181 156 161 168 160 181 204 204 186 95 92 104 114 113 112 117 117 108 104 110 118 119 121 123 128 133 134 133 135 136 138 145 148 145 144 148 152 160 171 184 194 200 213 230 250 266 272 272 269 262 262 267 274 283 293 302 309 304 291 280 269 260 259 259 260 262 265 268 275 281 285 287 289 296 302 291 281 278 279 283 289 292 295 298 301
279 140 141 136 354 321 115 120 136 125 114 110 111 114 120 122 121 122 120 115 117 124 125 124 125 126 130 134 136 136 139 144 149 152 154 156 160 166 172 179 188 197 212 226 238 259 271 271 271 268 263 263 264 265 271 279 288 300 306 307 306 295 283 275 270 265 260 258 259 264 272 282 291 295 295 287 273 266 266 269 274 278 285 292 295 296
4 25 89 110 56 86 97 341 155 142 131 127 127 125 126 128 123 122 126 128 131 136 135 133 133 132 133 137 138 137 144 152 153 153 158 162 167 174 182 186 189 195 207 222 240 261 268 262 263 271 282 289 282 272 269 267 268 275 281 290 301 303 300 295 287 277 266 259 258 259 262 272 287 297 298 290 276 266 262 261 265 272 280 288 291 294
353 9 17 76 75 159 202 350 106 137 133 131 140 141 136 135 135 132 135 139 142 147 150 149 148 147 145 146 145 145 151 157 158 157 159 162 167 175 182 188 190 190 201 223 241 255 262 267 277 290 297 290 274 268 267 263 262 266 271 278 286 296 303 303 299 291 278 266 259 255 253 259 273 286 290 289 286 282 276 270 270 275 281 287 292 296
338 350 338 314 359 3 4 30 76 107 89 73 117 143 148 151 154 154 156 160 157 153 155 159 164 166 164 159 156 155 155 157 160 160 158 158 164 170 174 179 185 192 198 203 222 251 273 285 289 284 266 256 263 276 283 284 278 270 269 275 280 288 301 306 306 302 292 277 266 257 250 252 260 271 282 288 291 292 291 290 290 291 289 287 287 289
359 304 224 67 40 235 254 352 44 113 104 57 69 106 147 163 167 164 163 169 171 169 170 171 173 180 186 182 175 170 164 160 165 169 167 166 168 172 178 187 205 232 243 241 251 266 274 263 235 228 239 254 275 291 298 300 291 273 265 268 273 283 296 301 305 306 302 291 276 260 252 255 261 268 282 293 294 294 298 302 304 304 298 290 283 278
107 199 162 123 145 190 194 17 40 91 102 61 53 67 102 143 162 168 172 176 181 185 193 198 199 204 212 210 203 197 190 183 181 183 183 183 187 192 198 212 229 242 251 260 269 262 224 203 209 228 248 264 283 298 301 291 268 255 256 260 265 274 283 291 297 300 300 298 285 264 254 259 266 271 282 292 294 296 302 306 306 305 302 295 289 286
Height
1493 1499 1501 1501 1500 1499 1497 1497 1500 1501 1501 1504 1508 1512 1515 1518 1520 1518 1516 1515 1517 1525 1529 1526 1529 1532 1531 1531 1531 1532 1532 1532 1534 1535 1537 1540 1542 1544 1546 1548 1550 1552 1554 1557 1559 1560 1562 1564 1565 1568 1569 1571 1572 1573 1575 1576 1578 1579 1581 1582 1582 1583 1584 1585 1586 1588 1590 1591 1592 1593 1594 1595 1595 1596 1597 1597 1597 1598 1599 1599 1600 1601 1602 1602 1603 1604
1495 1502 1501 1497 1496 1494 1493 1495 1498 1501 1503 1505 1508 1513 1516 1517 1519 1518 1519 1520 1521 1528 1532 1528 1531 1534 1533 1533 1533 1532 1533 1533 1534 1534 1536 1538 1540 1543 1545 1547 1549 1551 1554 1556 1558 1559 1561 1563 1564 1567 1569 1570 1571 1573 1574 1576 1577 1579 1580 1581 1582 1583 1584 1584 1585 1587 1590 1591 1592 1593 1594 1595 1596 1596 1597 1597 1598 1599 1599 1600 1601 1602 1602 1603 1604 1605
1500 1502 1497 1492 1492 1492 1492 1494 1497 1500 1503 1507 1509 1514 1518 1517 1518 1522 1522 1521 1521 1529 1535 1532 1534 1538 1535 1535 1536 1533 1533 1535 1535 1534 1535 1537 1539 1542 1544 1546 1548 1551 1553 1555 1557 1558 1559 1561 1563 1566 1568 1569 1570 1572 1574 1575 1577 1578 1580 1581 1582 1583 1584 1585 1585 1587 1589 1590 1592 1593 1594 1595 1596 1596 1597 1598 1599 1600 1600 1601 1602 1602 1603 1604 1604 1605
1505 1499 1490 1488 1490 1492 1493 1494 1497 1500 1503 1507 1509 1514 1519 1516 1516 1525 1528 1523 1521 1527 1534 1534 1537 1541 1538 1537 1536 1534 1534 1535 1536 1535 1536 1537 1539 1540 1543 1545 1547 1549 1552 1554 1556 1557 1558 1560 1562 1565 1567 1568 1569 1571 1573 1575 1576 1577 1579 1580 1582 1583 1584 1585 1586 1587 1589 1590 1591 1593 1594 1595 1595 1596 1597 1598 1599 1600 1601 1602 1603 1603 1604 1605 1605 1606
1501 1490 1484 1487 1490 1492 1494 1494 1496 1502 1505 1506 1505 1507 1513 1513 1511 1518 1523 1524 1525 1529 1532 1534 1543 1548 1543 1541 1539 1535 1534 1535 1536 1537 1537 1538 1539 1540 1542 1544 1547 1548 1551 1553 1554 1556 1558 1559 1561 1563 1566 1567 1569 1570 1572 1573 1575 1576 1578 1580 1582 1583 1584 1585 1587 1588 1590 1591 1591 1593 1594 1594 1595 1596 1597 1598 1599 1600 1601 1602 1603 1604 1605 1605 1606 1606
1495 1484 1483 1488 1490 1491 1494 1494 1494 1498 1504 1506 1502 1498 1502 1507 1509 1514 1519 1525 1536 1540 1534 1534 1549 1555 1546 1544 1543 1537 1536 1537 1538 1538 1538 1539 1539 1540 1542 1543 1546 1548 1550 1552 1552 1554 1557 1558 1560 1563 1565 1567 1568 1569 1571 1573 1574 1576 1577 1579 1581 1583 1584 1586 1587 1589 1590 1591 1592 1593 1593 1594 1595 1596 1596 1598 1599 1600 1601 1602 1603 1604 1605 1606 1606 1607
1488 1481 1483 1487 1489 1490 1493 1493 1489 1491 1501 1506 1498 1491 1495 1502 1509 1514 1515 1524 1538 1538 1529 1527 1542 1555 1551 1547 1544 1539 1540 1540 1539 1539 1538 1539 1539 1540 1541 1543 1545 1547 1549 1550 1551 1553 1556 1558 1559 1561 1563 1565 1567 1569 1571 1573 1574 1576 1577 1579 1581 1583 1584 1585 1587 1589 1590 1591 1592 1593 1594 1594 1595 1596 1597 1598 1599 1600 1601 1602 1603 1604 1605 1606 1607 1607
1481 1481 1484 1485 1487 1490 1493 1492 1485 1485 1497 1499 1487 1486 1496 1500 1505 1511 1512 1521 1527 1524 1527 1526 1529 1547 1555 1549 1543 1540 1542 1544 1541 1539 1538 1538 1539 1540 1541 1542 1544 1546 1547 1549 1550 1552 1554 1556 1558 1560 1562 1564 1567 1569 1571 1573 1574 1576 1577 1579 1581 1583 1584 1585 1587 1589 1590 1591 1592 1593 1594 1595 1596 1597 1598 1598 1600 1601 1601 1602 1603 1604 1605 1606 1607 1608
1477 1480 1483 1483 1487 1490 1488 1484 1479 1481 1491 1488 1479 1483 1492 1495 1500 1505 1510 1518 1519 1524 1539 1533 1524 1545 1558 1547 1541 1541 1543 1545 1541 1537 1537 1536 1537 1539 1540 1542 1543 1545 1547 1548 1549 1551 1553 1555 1557 1559 1562 1564 1566 1569 1570 1572 1574 1576 1577 1579 1581 1583 1584 1585 1587 1589 1590 1591 1592 1594 1595 1596 1597 1598 1599 1599 1600 1601 1601 1602 1603 1604 1605 1606 1607 1608
1476 1475 1476 1478 1484 1485 1480 1475 1473 1478 1485 1480 1478 1485 1491 1495 1500 1504 1512 1519 1524 1534 1544 1534 1525 1545 1560 1549 1543 1544 1543 1542 1538 1535 1535 1535 1536 1538 1539 1541 1542 1544 1546 1547 1548 1549 1552 1554 1556 1559 1561 1564 1566 1568 1570 1572 1574 1576 1577 1579 1581 1582 1584 1586 1587 1589 1590 1591 1593 1594 1595 1596 1597 1598 1599 1600 1600 1601 1602 1602 1603 1603 1604 1605 1606 1607
1473 1470 1470 1473 1476 1475 1472 1471 1470 1474 1477 1476 1482 1491 1500 1506 1504 1508 1513 1518 1536 1545 1536 1527 1525 1537 1555 1551 1540 1538 1534 1532 1534 1535 1535 1534 1535 1537 1539 1541 1542 1543 1544 1546 1547 1549 1551 1553 1556 1558 1560 1563 1565 1567 1570 1572 1573 1575 1577 1579 1581 1582 1584 1586 1587 1589 1590 1591 1593 1594 1595 1596 1597 1598 1599 1599 1600 1601 1601 1602 1603 1603 1604 1605 1606 1606
1473 1472 1471 1467 1467 1467 1468 1471 1468 1468 1471 1476 1485 1494 1508 1519 1515 1521 1525 1525 1547 1550 1526 1520 1521 1526 1545 1545 1532 1528 1525 1524 1528 1531 1531 1531 1533 1535 1538 1539 1540 1542 1544 1545 1547 1548 1550 1553 1555 1557 1559 1562 1564 1567 1569 1571 1573 1575 1577 1579 1581 1582 1584 1586 1587 1589 1590 1591 1593 1594 1595 1596 1597 1598 1598 1599 1600 1600 1601 1602 1603 1603 1604 1604 1605 1606
1476 1473 1469 1465 1463 1462 1468 1474 1473 1470 1470 1477 1488 1496 1514 1529 1532 1542 1546 1541 1549 1539 1514 1514 1520 1526 1537 1531 1523 1524 1522 1521 1523 1525 1527 1528 1531 1535 1537 1538 1539 1541 1543 1544 1546 1548 1549 1552 1554 1556 1559 1561 1563 1565 1567 1570 1572 1574 1576 1578 1580 1582 1584 1585 1587 1588 1590 1591 1592 1594 1595 1596 1597 1598 1598 1599 1600 1600 1601 1602 1603 1603 1604 1604 1605 1605
1482 1474 1467 1467 1466 1460 1465 1475 1479 1478 1476 1480 1488 1496 1513 1529 1540 1551 1550 1543 1541 1527 1511 1509 1516 1531 1538 1527 1520 1522 1520 1520 1522 1524 1527 1529 1531 1534 1536 1537 1539 1540 1542 1544 1546 1548 1549 1551 1553 1555 1558 1560 1562 1564 1566 1568 1571 1573 1575 1577 1579 1581 1583 1584 1586 1587 1589 1590 1592 1593 1594 1595 1596 1597 1598 1599 1599 1600 1600 1601 1602 1603 1603 1604 1604 1605
1492 1487 1472 1468 1467 1461 1463 1470 1474 1476 1477 1480 1480 1486 1499 1510 1522 1535 1536 1533 1531 1524 1518 1516 1523 1538 1541 1530 1522 1520 1519 1521 1524 1526 1529 1531 1532 1533 1536 1538 1540 1541 1543 1545 1547 1549 1551 1552 1553 1555 1557 1559 1561 1563 1565 1567 1570 1572 1574 1576 1578 1580 1581 1583 1585 1586 1588 1589 1591 1592 1593 1595 1595 1596 1597 1598 1599 1599 1600 1601 1601 1602 1603 1603 1604 1605
1491 1487 1470 1462 1460 1459 1464 1465 1464 1471 1480 1480 1476 1482 1492 1493 1496 1507 1512 1512 1515 1525 1530 1531 1537 1539 1533 1528 1522 1519 1521 1521 1524 1527 1529 1531 1532 1532 1535 1538 1540 1541 1544 1548 1550 1550 1552 1553 1554 1556 1557 1558 1560 1562 1563 1566 1568 1570 1573 1575 1577 1579 1580 1581 1583 1584 1586 1588 1589 1591 1592 1593 1594 1595 1596 1597 1598 1598 1599 1600 1601 1601 1602 1603 1604 1605
1491 1484 1468 1462 1460 1458 1463 1463 1462 1471 1480 1480 1481 1486 1486 1481 1485 1495 1505 1504 1509 1531 1541 1540 1544 1540 1532 1531 1524 1521 1524 1523 1524 1526 1528 1531 1531 1531 1534 1536 1539 1540 1543 1548 1549 1550 1552 1552 1553 1555 1556 1558 1559 1561 1563 1564 1567 1569 1571 1573 1575 1577 1578 1580 1581 1582 1584 1585 1587 1589 1590 1592 1593 1593 1595 1595 1597 1598 1598 1599 1600 1601 1602 1602 1603 1604
1490 1487 1472 1465 1466 1461 1459 1462 1463 1465 1472 1480 1487 1485 1478 1479 1482 1488 1504 1514 1521 1541 1547 1543 1548 1546 1542 1541 1531 1526 1528 1526 1526 1527 1529 1532 1532 1532 1533 1535 1538 1539 1541 1545 1546 1547 1550 1553 1555 1555 1556 1558 1559 1561 1562 1563 1565 1568 1570 1572 1573 1575 1576 1577 1579 1580 1581 1583 1584 1586 1587 1589 1591 1592 1593 1594 1596 1597 1598 1598 1599 1600 1601 1601 1602 1603
1483 1488 1478 1466 1468 1465 1458 1465 1472 1468 1467 1474 1480 1477 1479 1492 1495 1491 1501 1515 1530 1549 1554 1551 1551 1547 1544 1542 1535 1532 1532 1530 1530 1529 1530 1533 1533 1534 1535 1535 1537 1538 1539 1542 1543 1545 1548 1552 1555 1555 1556 1558 1558 1560 1561 1563 1565 1566 1568 1570 1570 1571 1572 1574 1575 1577 1579 1580 1581 1584 1585 1587 1589 1590 1592 1593 1594 1596 1596 1597 1598 1599 1600 1601 1601 1602
1478 1487 1486 1471 1466 1466 1465 1472 1481 1480 1473 1471 1474 1476 1480 1489 1493 1492 1494 1502 1522 1545 1554 1557 1557 1547 1540 1538 1535 1535 1535 1534 1534 1532 1533 1535 1535 1537 1537 1537 1538 1538 1539 1540 1541 1544 1546 1549 1552 1554 1556 1557 1558 1560 1561 1562 1563 1564 1565 1566 1566 1568 1569 1571 1573 1575 1577 1579 1580 1582 1583 1585 1587 1588 1590 1591 1593 1594 1595 1596 1597 1598 1599 1600 1600 1601
1478 1484 1489 1478 1468 1472 1477 1478 1480 1482 1479 1479 1482 1484 1485 1484 1485 1489 1492 1493 1509 1532 1547 1557 1560 1549 1536 1533 1534 1535 1536 1537 1536 1534 1536 1537 1537 1538 1539 1538 1539 1539 1540 1541 1541 1544 1545 1547 1549 1551 1554 1556 1557 1559 1560 1560 1561 1561 1562 1562 1563 1565 1567 1570 1573 1575 1577 1578 1579 1581 1582 1583 1585 1587 1589 1590 1591 1592 1593 1595 1596 1597 1598 1599 1599 1600
1482 1486 1491 1485 1478 1479 1480 1474 1473 1475 1476 1480 1484 1484 1485 1486 1489 1498 1504 1500 1502 1517 1531 1542 1552 1549 1535 1531 1533 1533 1534 1537 1538 1537 1538 1538 1538 1540 1540 1540 1540 1540 1541 1542 1542 1543 1544 1545 1547 1549 1551 1553 1555 1557 1558 1559 1560 1561 1561 1562 1564 1566 1568 1570 1573 1575 1576 1578 1579 1580 1581 1582 1583 1585 1587 1589 1590 1591 1592 1593 1594 1595 1596 1597 1598 1598
1483 1488 1493 1489 1482 1480 1476 1470 1470 1471 1470 1474 1478 1480 1481 1483 1487 1497 1506 1506 1506 1514 1518 1526 1544 1548 1535 1530 1533 1534 1534 1536 1540 1541 1540 1539 1540 1541 1541 1542 1542 1542 1542 1543 1543 1543 1544 1544 1545 1547 1549 1551 1552 1554 1555 1557 1559 1561 1560 1561 1563 1565 1567 1570 1571 1573 1575 1576 1578 1579 1580 1581 1582 1583 1585 1586 1588 1589 1590 1591 1592 1593 1594 1595 1596 1597
1483 1491 1496 1492 1484 1479 1474 1470 1470 1469 1471 1477 1479 1477 1479 1482 1482 1486 1492 1498 1510 1519 1519 1528 1547 1548 1536 1532 1534 1535 1537 1537 1540 1542 1541 1540 1541 1542 1543 1544 1544 1544 1544 1544 1544 1544 1544 1545 1545 1547 1549 1550 1551 1552 1553 1555 1557 1559 1559 1559 1560 1563 1566 1569 1571 1573 1574 1575 1577 1578 1579 1580 1581 1582 1583 1584 1585 1587 1588 1590 1590 1591 1592 1593 1594 1595
1488 1494 1498 1498 1497 1495 1491 1488 1485 1480 1478 1483 1483 1479 1480 1480 1480 1484 1488 1493 1509 1519 1517 1528 1547 1546 1535 1534 1534 1535 1539 1539 1539 1541 1541 1540 1542 1543 1544 1545 1545 1545 1545 1545 1545 1545 1545 1546 1547 1548 1549 1550 1551 1552 1553 1554 1556 1558 1560 1561 1562 1563 1565 1568 1570 1572 1573 1575 1575 1575 1577 1579 1580 1581 1581 1582 1583 1584 1586 1587 1589 1590 1590 1591 1592 1593
1491 1495 1498 1503 1510 1514 1514 1510 1503 1494 1488 1487 1485 1481 1482 1481 1480 1485 1492 1500 1513 1519 1516 1524 1541 1543 1537 1535 1536 1536 1538 1539 1541 1542 1542 1542 1543 1543 1544 1545 1546 1546 1546 1547 1547 1547 1547 1547 1548 1549 1550 1551 1552 1553 1554 1554 1556 1558 1561 1562 1562 1563 1564 1567 1568 1570 1573 1575 1574 1574 1577 1580 1581 1581 1580 1581 1581 1582 1584 1585 1586 1588 1589 1590 1591 1592
1492 1496 1498 1502 1507 1508 1508 1503 1496 1492 1491 1491 1488 1485 1484 1482 1481 1484 1493 1503 1511 1517 1523 1524 1527 1538 1542 1538 1536 1538 1537 1539 1541 1542 1543 1544 1545 1545 1545 1546 1547 1547 1547 1548 1549 1549 1549 1549 1550 1551 1551 1552 1553 1553 1554 1554 1555 1557 1559 1560 1561 1561 1562 1565 1567 1569 1572 1573 1574 1576 1579 1580 1580 1579 1579 1579 1580 1580 1581 1582 1584 1585 1587 1588 1590 1590
1497 1500 1498 1499 1500 1498 1496 1493 1489 1488 1491 1492 1490 1489 1487 1485 1483 1484 1492 1501 1503 1514 1530 1528 1520 1531 1540 1536 1535 1537 1537 1538 1540 1541 1542 1544 1545 1546 1546 1547 1548 1547 1547 1549 1551 1552 1551 1551 1552 1552 1553 1553 1554 1554 1554 1554 1555 1555 1556 1557 1558 1559 1561 1564 1566 1567 1570 1572 1573 1576 1578 1578 1577 1576 1577 1577 1578 1578 1579 1580 1582 1583 1584 1586 1587 1588
1501 1504 1499 1497 1498 1495 1492 1490 1488 1488 1491 1491 1490 1491 1490 1489 1487 1488 1494 1498 1497 1507 1523 1526 1523 1528 1531 1529 1531 1533 1534 1537 1538 1540 1542 1543 1545 1546 1546 1547 1548 1548 1549 1551 1553 1553 1553 1553 1553 1554 1554 1554 1555 1555 1555 1555 1556 1556 1555 1555 1555 1557 1559 1561 1563 1565 1568 1570 1573 1575 1576 1576 1574 1573 1574 1575 1575 1576 1577 1579 1580 1581 1582 1583 1585 1586
1502 1505 1500 1498 1498 1494 1492 1491 1489 1489 1491 1492 1492 1491 1490 1490 1489 1490 1495 1497 1497 1504 1513 1519 1525 1527 1525 1525 1528 1529 1532 1535 1537 1540 1541 1542 1544 1545 1546 1547 1549 1550 1552 1553 1554 1554 1554 1554 1554 1555 1555 1556 1556 1556 1556 1556 1557 1557 1556 1556 1556 1557 1558 1559 1561 1564 1567 1570 1571 1574 1574 1573 1572 1572 1572 1573 1574 1575 1576 1577 1579 1579 1580 1581 1583 1584
1502 1505 1501 1498 1501 1498 1494 1492 1491 1491 1493 1494 1494 1492 1491 1492 1492 1494 1498 1500 1503 1512 1515 1518 1528 1530 1525 1525 1527 1529 1532 1535 1537 1540 1541 1542 1544 1544 1545 1547 1549 1551 1553 1553 1554 1555 1555 1554 1555 1555 1555 1556 1557 1557 1556 1556 1557 1557 1557 1557 1557 1558 1558 1559 1561 1564 1567 1568 1570 1571 1571 1570 1569 1570 1571 1571 1572 1574 1575 1576 1577 1578 1579 1580 1581 1582
1502 1506 1502 1501 1506 1504 1498 1497 1495 1492 1493 1496 1498 1497 1495 1495 1496 1497 1499 1500 1504 1515 1521 1524 1530 1530 1525 1524 1527 1529 1532 1535 1537 1539 1540 1543 1544 1543 1544 1547 1548 1551 1553 1554 1555 1556 1556 1555 1555 1556 1556 1557 1559 1558 1558 1558 1557 1558 1558 1559 1560 1561 1561 1561 1562 1564 1566 1566 1567 1568 1568 1567 1566 1567 1569 1569 1570 1571 1572 1574 1575 1576 1577 1577 1578 1579
1505 1507 1506 1508 1512 1509 1503 1501 1495 1494 1503 1509 1505 1500 1497 1496 1496 1498 1500 1500 1500 1507 1517 1524 1526 1523 1521 1523 1526 1530 1532 1534 1537 1538 1539 1542 1543 1543 1544 1546 1548 1551 1553 1555 1556 1556 1557 1557 1557 1558 1558 1559 1560 1560 1560 1559 1559 1560 1561 1562 1563 1564 1564 1564 1565 1565 1565 1565 1565 1566 1566 1565 1565 1565 1567 1567 1568 1569 1570 1571 1572 1573 1574 1574 1575 1577
1508 1508 1508 1510 1513 1513 1508 1499 1497 1506 1518 1516 1503 1497 1496 1495 1496 1500 1503 1504 1502 1503 1508 1514 1518 1520 1521 1523 1525 1529 1531 1533 1536 1538 1539 1540 1542 1544 1545 1547 1549 1551 1553 1556 1557 1558 1559 1559 1560 1560 1560 1561 1561 1561 1561 1561 1561 1562 1562 1563 1564 1565 1565 1565 1565 1565 1565 1564 1564 1564 1564 1563 1563 1564 1565 1566 1567 1568 1568 1569 1569 1570 1570 1571 1572 1573
1511 1511 1510 1509 1512 1513 1507 1503 1513 1523 1519 1506 1497 1495 1494 1494 1495 1499 1503 1503 1503 1504 1507 1512 1517 1520 1522 1524 1527 1529 1532 1534 1537 1538 1539 1540 1541 1543 1545 1548 1550 1551 1554 1556 1558 1559 1560 1560 1561 1562 1562 1562 1562 1562 1562 1563 1562 1563 1563 1564 1564 1565 1565 1565 1565 1565 1565 1564 1564 1564 1563 1563 1563 1563 1564 1564 1565 1565 1566 1566 1566 1567 1568 1568 1569 1570
1510 1513 1513 1511 1511 1513 1512 1515 1524 1522 1508 1499 1498 1496 1495 1495 1496 1501 1508 1509 1505 1505 1507 1512 1517 1520 1522 1527 1530 1532 1534 1537 1539 1541 1541 1542 1542 1543 1546 1548 1550 1552 1554 1557 1558 1559 1560 1561 1562 1562 1562 1562 1562 1562 1563 1563 1564 1564 1564 1564 1564 1564 1565 1565 1564 1564 1564 1564 1564 1564 1563 1563 1562 1562 1562 1562 1563 1564 1564 1564 1564 1565 1565 1566 1567 1567
1509 1512 1515 1516 1515 1516 1519 1520 1519 1514 1510 1508 1505 1500 1499 1499 1496 1499 1511 1515 1509 1507 1509 1512 1517 1521 1523 1527 1529 1533 1536 1538 1542 1545 1545 1543 1544 1545 1546 1548 1549 1552 1554 1557 1559 1559 1560 1561 1562 1562 1562 1562 1563 1563 1563 1564 1564 1564 1564 1564 1564 1564 1564 1564 1564 1564 1564 1563 1563 1562 1562 1561 1561 1560 1560 1560 1561 1562 1562 1562 1563 1563 1563 1563 1564 1564
1509 1512 1515 1519 1520 1518 1520 1522 1521 1524 1524 1518 1511 1504 1500 1499 1495 1494 1506 1517 1515 1511 1511 1511 1514 1519 1522 1525 1529 1532 1536 1541 1546 1548 1547 1546 1545 1545 1547 1548 1550 1552 1554 1557 1558 1559 1559 1560 1561 1561 1562 1563 1563 1563 1564 1564 1564 1564 1564 1564 1564 1564 1564 1564 1564 1563 1563 1563 1562 1562 1561 1561 1560 1560 1560 1560 1560 1560 1560 1560 1560 1560 1560 1560 1561 1561
1511 1513 1514 1519 1523 1521 1522 1526 1528 1530 1526 1517 1511 1506 1501 1501 1496 1494 1510 1525 1520 1514 1513 1513 1516 1519 1520 1523 1527 1529 1534 1542 1548 1548 1547 1547 1546 1545 1547 1549 1551 1553 1554 1556 1557 1558 1559 1560 1560 1561 1562 1562 1563 1563 1563 1564 1564 1564 1564 1564 1564 1563 1563 1562 1563 1563 1562 1562 1561 1561 1561 1560 1560 1560 1560 1559 1559 1559 1558 1558 1558 1558 1557 1557 1558 1558
1515 1516 1517 1522 1526 1525 1526 1528 1528 1526 1519 1512 1510 1507 1504 1501 1498 1506 1527 1533 1520 1514 1516 1515 1518 1522 1522 1524 1528 1529 1532 1539 1544 1546 1547 1546 1546 1547 1548 1550 1552 1553 1554 1555 1557 1558 1558 1559 1559 1560 1561 1562 1562 1562 1563 1563 1563 1562 1563 1562 1562 1562 1561 1561 1561 1561 1561 1561 1561 1561 1560 1560 1560 1560 1559 1559 1559 1559 1558 1558 1557 1557 1556 1556 1556 1557
1519 1520 1522 1525 1527 1527 1527 1528 1527 1523 1515 1510 1509 1508 1505 1502 1504 1518 1531 1526 1515 1516 1517 1515 1520 1525 1525 1525 1528 1530 1534 1537 1540 1544 1546 1545 1546 1548 1550 1551 1552 1553 1554 1555 1557 1557 1558 1558 1559 1559 1560 1561 1561 1562 1562 1562 1562 1562 1562 1561 1561 1561 1560 1560 1559 1559 1560 1560 1560 1560 1560 1559 1559 1559 1558 1558 1558 1558 1558 1557 1557 1556 1556 1556 1556 1555
1523 1523 1524 1525 1526 1527 1526 1528 1530 1525 1515 1509 1510 1507 1503 1507 1516 1524 1523 1517 1515 1518 1517 1517 1522 1525 1526 1527 1528 1531 1536 1539 1541 1543 1545 1545 1546 1548 1549 1551 1552 1553 1554 1556 1557 1558 1558 1558 1558 1559 1560 1560 1560 1561 1561 1561 1561 1561 1561 1561 1561 1560 1560 1559 1559 1559 1559 1559 1559 1559 1559 1559 1558 1558 1558 1557 1557 1556 1556 1555 1555 1556 1555 1555 1555 1554
1521 1524 1526 1525 1525 1526 1527 1530 1534 1530 1517 1510 1510 1509 1507 1513 1520 1521 1518 1517 1518 1518 1518 1520 1521 1522 1524 1527 1530 1533 1536 1539 1541 1543 1544 1545 1547 1548 1550 1551 1552 1554 1555 1556 1557 1558 1558 1559 1559 1559 1558 1558 1559 1559 1559 1560 1560 1560 1560 1560 1560 1560 1559 1559 1558 1558 1558 1557 1557 1557 1557 1557 1557 1557 1557 1556 1556 1555 1554 1554 1554 1554 1554 1554 1553 1552
1519 1522 1527 1525 1524 1526 1529 1530 1529 1524 1516 1512 1512 1514 1514 1516 1518 1518 1517 1519 1520 1520 1521 1522 1522 1524 1524 1526 1530 1535 1537 1539 1541 1542 1544 1546 1547 1548 1550 1551 1552 1554 1555 1556 1557 1558 1558 1559 1559 1559 1558 1558 1558 1558 1558 1558 1558 1559 1559 1559 1559 1559 1558 1558 1558 1557 1557 1557 1556 1556 1556 1556 1556 1556 1556 1556 1555 1554 1554 1553 1553 1553 1553 1552 1552 1551
1518 1517 1520 1521 1520 1522 1524 1523 1520 1517 1516 1515 1514 1516 1517 1518 1519 1520 1520 1521 1522 1523 1523 1523 1526 1528 1527 1528 1531 1535 1536 1539 1541 1541 1543 1545 1547 1548 1550 1551 1552 1554 1554 1556 1557 1557 1557 1558 1558 1558 1559 1559 1558 1558 1558 1557 1557 1558 1558 1557 1557 1557 1557 1556 1556 1556 1556 1556 1555 1555 1554 1554 1554 1555 1555 1555 1554 1554 1553 1553 1553 1552 1552 1551 1551 1550
1516 1515 1516 1517 1518 1519 1519 1518 1518 1517 1517 1517 1517 1518 1519 1520 1521 1522 1522 1523 1525 1526 1527 1527 1529 1530 1531 1532 1533 1535 1538 1540 1540 1542 1543 1544 1546 1548 1549 1551 1552 1553 1554 1556 1556 1556 1557 1557 1557 1558 1558 1558 1558 1558 1557 1557 1557 1556 1556 1556 1555 1555 1555 1554 1554 1554 1554 1554 1554 1553 1553 1553 1553 1553 1553 1553 1553 1552 1552 1552 1552 1552 1551 1550 1550 1549
1517 1516 1516 1517 1519 1521 1522 1520 1519 1518 1518 1518 1519 1520 1520 1521 1522 1523 1524 1526 1527 1528 1529 1530 1531 1533 1534 1535 1535 1536 1539 1540 1540 1542 1543 1544 1546 1548 1549 1550 1552 1553 1554 1555 1555 1556 1557 1557 1557 1557 1557 1557 1557 1557 1556 1556 1556 1555 1555 1554 1554 1553 1553 1553 1552 1552 1552 1552 1552 1552 1552 1551 1551 1551 1551 1551 1551 1551 1551 1551 1551 1551 1550 1549 1549 1548
1518 1517 1518 1519 1519 1521 1521 1520 1519 1520 1520 1519 1519 1520 1521 1522 1523 1524 1525 1526 1527 1529 1530 1531 1532 1534 1535 1536 1537 1538 1539 1540 1541 1541 1542 1544 1546 1548 1549 1550 1551 1552 1553 1554 1555 1556 1557 1557 1557 1557 1557 1556 1556 1555 1555 1555 1555 1555 1554 1553 1553 1552 1551 1551 1551 1550 1550 1550 1549 1550 1550 1549 1549 1549 1549 1549 1549 1549 1550 1550 1549 1549 1549 1549 1548 1547
1519 1519 1520 1521 1521 1521 1521 1521 1520 1521 1522 1521 1521 1521 1521 1522 1523 1524 1525 1526 1527 1528 1530 1531 1532 1534 1535 1536 1537 1538 1539 1541 1541 1541 1542 1544 1546 1547 1549 1550 1551 1552 1553 1554 1555 1556 1556 1556 1557 1556 1556 1555 1555 1555 1555 1554 1554 1554 1553 1553 1552 1551 1550 1550 1549 1548 1548 1548 1547 1548 1548 1548 1547 1547 1547 1547 1547 1547 1547 1547 1547 1547 1547 1547 1547 1546
1520 1521 1521 1522 1523 1524 1524 1523 1523 1523 1524 1524 1523 1523 1523 1523 1524 1524 1525 1526 1527 1528 1529 1531 1532 1533 1534 1535 1536 1537 1538 1540 1540 1541 1543 1544 1545 1547 1548 1549 1550 1552 1552 1553 1554 1554 1555 1555 1555 1554 1555 1555 1554 1554 1554 1553 1553 1552 1551 1551 1551 1550 1549 1549 1548 1547 1547 1546 1546 1546 1546 1545 1545 1545 1545 1545 1545 1545 1545 1545 1545 1545 1544 1544 1544 1544
1521 1521 1521 1522 1524 1525 1524 1524 1524 1524 1525 1525 1525 1525 1525 1524 1524 1525 1525 1526 1527 1528 1529 1530 1531 1532 1533 1534 1535 1536 1537 1538 1539 1541 1542 1543 1545 1546 1547 1548 1550 1551 1551 1552 1552 1553 1553 1553 1553 1553 1554 1554 1553 1553 1553 1552 1551 1550 1550 1550 1549 1549 1549 1548 1547 1546 1546 1545 1544 1544 1544 1544 1543 1543 1543 1543 1543 1542 1542 1542 1542 1542 1542 1542 1542 1542